User: anonymous
Location: Unspecified
(0.0000°N, 0.0000°E)
Time: 09:02:40
(UTC+02:00)
Language:

SJ-6B - Orbit

View from above orbital plane
View from above orbital plane
View from above satellite
View from above satellite

Ground track
Ground track

The orbit data is extracted from the following two-line orbital elements,

1 28415U 04035C   14245.47364029  .00001767  00000-0  13382-3 0  2751
2 28415 097.8022 250.6033 0054646 331.9969 027.8317 15.02488527545356
Epoch (UTC): 02 September 2014 11:22:02
Eccentricity: 0.0054646
inclination: 97.8022°
perigee height: 521 km
apogee height: 597 km
right ascension of ascending node: 250.6033°
argument of perigee: 331.9969°
revolutions per day: 15.02488527
mean anomaly at epoch: 27.8317°
orbit number at epoch: 54535

The dashed part of the orbit path shows where the satellite is in the earth's shadow,  

DLR